Time,TemperatureF,DewpointF,PressureIn,WindDirection,WindDirectionDegrees,WindSpeedMPH,WindSpeedGustMPH,Humidity,HourlyPrecipIn,Conditions,Clouds,dailyrainin,SoftwareType,DateUTC
2013-04-17 00:02:00,72.0,68.0,30.10,ENE,77,5.0,13.0,87,0.00,,,0.00,,2013-04-17 10:02:00,
2013-04-17 00:12:00,72.0,68.0,30.10,ENE,77,5.0,13.0,87,0.00,,,0.00,,2013-04-17 10:12:00,
2013-04-17 00:22:00,72.0,68.0,30.10,ENE,77,5.0,13.0,87,0.00,,,0.00,,2013-04-17 10:22:00,
2013-04-17 00:32:00,72.0,68.0,30.09,ENE,78,8.0,14.0,88,0.00,,,0.00,,2013-04-17 10:32:00,
2013-04-17 00:42:00,72.0,68.0,30.09,ENE,78,8.0,14.0,88,0.00,,,0.00,,2013-04-17 10:42:00,
2013-04-17 00:52:00,72.0,68.0,30.08,ENE,76,4.0,11.0,88,0.00,,,0.00,,2013-04-17 10:52:00,
2013-04-17 01:02:00,72.0,68.0,30.08,East,83,5.0,10.0,88,0.00,,,0.00,,2013-04-17 11:02:00,
2013-04-17 01:11:00,72.0,68.0,30.08,East,83,5.0,10.0,88,0.00,,,0.00,,2013-04-17 11:11:00,
2013-04-17 01:21:00,72.0,68.0,30.07,ENE,75,3.0,13.0,88,0.00,,,0.00,,2013-04-17 11:21:00,
2013-04-17 01:31:00,72.0,68.0,30.07,ENE,64,7.0,11.0,88,0.00,,,0.00,,2013-04-17 11:31:00,
2013-04-17 01:42:00,72.0,68.0,30.07,ENE,64,7.0,11.0,88,0.00,,,0.00,,2013-04-17 11:42:00,
2013-04-17 01:52:00,72.0,68.0,30.07,NE,36,3.0,14.0,88,0.00,,,0.00,,2013-04-17 11:52:00,
2013-04-17 02:02:00,72.0,68.0,30.07,ENE,63,5.0,7.0,88,0.00,,,0.00,,2013-04-17 12:02:00,
2013-04-17 02:12:00,72.0,68.0,30.07,ENE,63,5.0,7.0,88,0.00,,,0.00,,2013-04-17 12:12:00,
2013-04-17 02:22:00,71.0,67.0,30.06,NE,34,3.0,10.0,88,0.00,,,0.00,,2013-04-17 12:22:00,
2013-04-17 02:32:00,71.0,68.0,30.06,NNE,28,0.0,9.0,89,0.00,,,0.00,,2013-04-17 12:32:00,
2013-04-17 02:42:00,71.0,68.0,30.06,NNE,28,0.0,9.0,89,0.00,,,0.00,,2013-04-17 12:42:00,
2013-04-17 02:52:00,71.0,68.0,30.06,ENE,69,8.0,11.0,89,0.00,,,0.00,,2013-04-17 12:52:00,
2013-04-17 03:01:00,71.0,68.0,30.05,ENE,58,5.0,11.0,89,0.00,,,0.00,,2013-04-17 13:01:00,
2013-04-17 03:11:00,71.0,68.0,30.05,ENE,58,5.0,11.0,89,0.00,,,0.00,,2013-04-17 13:11:00,
2013-04-17 03:22:00,71.0,68.0,30.05,East,79,3.0,15.0,89,0.00,,,0.00,,2013-04-17 13:22:00,
2013-04-17 03:31:00,71.0,68.0,30.05,NE,46,4.0,13.0,89,0.00,,,0.00,,2013-04-17 13:31:00,
2013-04-17 03:41:00,71.0,68.0,30.05,NE,46,4.0,13.0,89,0.00,,,0.00,,2013-04-17 13:41:00,
2013-04-17 03:52:00,71.0,68.0,30.05,ENE,61,5.0,13.0,89,0.00,,,0.00,,2013-04-17 13:52:00,
2013-04-17 04:02:00,71.0,68.0,30.04,ENE,63,8.0,12.0,89,0.00,,,0.00,,2013-04-17 14:02:00,
2013-04-17 04:11:00,71.0,68.0,30.04,ENE,63,8.0,12.0,89,0.00,,,0.00,,2013-04-17 14:11:00,
2013-04-17 04:21:00,71.0,68.0,30.04,ENE,63,4.0,14.0,89,0.00,,,0.00,,2013-04-17 14:21:00,
2013-04-17 04:32:00,71.0,68.0,30.04,NNE,24,9.0,17.0,89,0.00,,,0.00,,2013-04-17 14:32:00,
2013-04-17 04:42:00,71.0,68.0,30.04,NNE,33,5.0,17.0,89,0.00,,,0.00,,2013-04-17 14:42:00,
2013-04-17 04:52:00,71.0,68.0,30.04,NNE,33,5.0,17.0,89,0.00,,,0.00,,2013-04-17 14:52:00,
2013-04-17 05:01:00,71.0,68.0,30.04,East,86,13.0,17.0,89,0.00,,,0.00,,2013-04-17 15:01:00,
2013-04-17 05:11:00,72.0,69.0,30.05,NNE,30,7.0,14.0,89,0.00,,,0.00,,2013-04-17 15:11:00,
2013-04-17 05:21:00,72.0,69.0,30.05,NNE,30,7.0,14.0,89,0.00,,,0.00,,2013-04-17 15:21:00,
2013-04-17 05:33:00,71.0,68.0,30.05,East,80,6.0,13.0,89,0.00,,,0.00,,2013-04-17 15:33:00,
2013-04-17 05:42:00,71.0,68.0,30.05,East,80,6.0,13.0,89,0.00,,,0.00,,2013-04-17 15:42:00,
2013-04-17 05:52:00,71.0,68.0,30.06,NE,37,15.0,17.0,89,0.00,,,0.00,,2013-04-17 15:52:00,
2013-04-17 06:03:00,71.0,68.0,30.06,ENE,70,3.0,16.0,89,0.00,,,0.00,,2013-04-17 16:03:00,
2013-04-17 06:12:00,71.0,68.0,30.06,NE,55,10.0,13.0,89,0.00,,,0.00,,2013-04-17 16:12:00,
2013-04-17 06:22:00,71.0,68.0,30.06,NE,55,10.0,13.0,89,0.00,,,0.00,,2013-04-17 16:22:00,
2013-04-17 06:32:00,71.0,68.0,30.07,NNE,23,16.0,16.0,89,0.00,,,0.00,,2013-04-17 16:32:00,
2013-04-17 06:41:00,71.0,68.0,30.07,NNE,23,16.0,16.0,89,0.00,,,0.00,,2013-04-17 16:41:00,
2013-04-17 06:52:00,72.0,69.0,30.07,East,88,1.0,12.0,89,0.00,,,0.00,,2013-04-17 16:52:00,
2013-04-17 07:02:00,72.0,69.0,30.08,NE,34,10.0,16.0,89,0.00,,,0.00,,2013-04-17 17:02:00,
2013-04-17 07:11:00,72.0,69.0,30.08,NE,34,10.0,16.0,89,0.00,,,0.00,,2013-04-17 17:11:00,
2013-04-17 07:22:00,72.0,68.0,30.07,NE,54,9.0,19.0,88,0.00,,,0.00,,2013-04-17 17:22:00,
2013-04-17 07:32:00,72.0,69.0,30.08,ENE,57,8.0,11.0,89,0.00,,,0.00,,2013-04-17 17:32:00,
2013-04-17 07:42:00,72.0,69.0,30.08,ENE,57,8.0,11.0,89,0.00,,,0.00,,2013-04-17 17:42:00,
2013-04-17 07:51:00,73.0,69.0,30.09,ENE,59,5.0,11.0,88,0.00,,,0.00,,2013-04-17 17:51:00,
2013-04-17 08:02:00,73.0,69.0,30.09,ENE,69,5.0,10.0,87,0.00,,,0.00,,2013-04-17 18:02:00,
2013-04-17 08:11:00,73.0,69.0,30.09,ENE,69,5.0,10.0,87,0.00,,,0.00,,2013-04-17 18:11:00,
2013-04-17 08:22:00,73.0,69.0,30.09,NE,40,3.0,13.0,87,0.00,,,0.00,,2013-04-17 18:22:00,
2013-04-17 08:31:00,73.0,69.0,30.09,NNE,23,7.0,12.0,87,0.00,,,0.00,,2013-04-17 18:31:00,
2013-04-17 08:42:00,73.0,69.0,30.09,NNE,23,7.0,12.0,87,0.00,,,0.00,,2013-04-17 18:42:00,
2013-04-17 08:52:00,74.0,69.0,30.11,East,82,9.0,16.0,85,0.00,,,0.00,,2013-04-17 18:52:00,
2013-04-17 09:02:00,75.0,70.0,30.11,NE,50,8.0,13.0,85,0.00,,,0.00,,2013-04-17 19:02:00,
2013-04-17 09:12:00,75.0,70.0,30.11,NE,50,8.0,13.0,85,0.00,,,0.00,,2013-04-17 19:12:00,
2013-04-17 09:21:00,75.0,70.0,30.11,East,82,8.0,16.0,84,0.00,,,0.00,,2013-04-17 19:21:00,
2013-04-17 09:31:00,76.0,71.0,30.12,East,94,9.0,17.0,85,0.00,,,0.00,,2013-04-17 19:31:00,
2013-04-17 09:41:00,77.0,71.0,30.12,ENE,75,8.0,16.0,82,0.00,,,0.00,,2013-04-17 19:41:00,
2013-04-17 09:52:00,77.0,71.0,30.12,ENE,75,8.0,16.0,82,0.00,,,0.00,,2013-04-17 19:52:00,
2013-04-17 10:02:00,77.0,71.0,30.12,ENE,71,10.0,15.0,82,0.00,,,0.00,,2013-04-17 20:02:00,
2013-04-17 10:12:00,77.0,71.0,30.12,ENE,71,10.0,15.0,82,0.00,,,0.00,,2013-04-17 20:12:00,
2013-04-17 10:21:00,77.0,71.0,30.12,East,93,9.0,20.0,81,0.00,,,0.00,,2013-04-17 20:21:00,
2013-04-17 10:31:00,77.0,70.0,30.12,East,84,8.0,15.0,80,0.00,,,0.00,,2013-04-17 20:31:00,
2013-04-17 10:41:00,77.0,70.0,30.12,East,84,8.0,15.0,80,0.00,,,0.00,,2013-04-17 20:41:00,
2013-04-17 10:52:00,78.0,72.0,30.12,ENE,71,9.0,15.0,81,0.00,,,0.00,,2013-04-17 20:52:00,
2013-04-17 11:02:00,77.0,70.0,30.12,East,91,9.0,18.0,80,0.00,,,0.00,,2013-04-17 21:02:00,
2013-04-17 11:11:00,77.0,70.0,30.12,East,91,9.0,18.0,80,0.00,,,0.00,,2013-04-17 21:11:00,
2013-04-17 11:22:00,79.0,72.0,30.12,East,98,8.0,14.0,78,0.00,,,0.00,,2013-04-17 21:22:00,
2013-04-17 11:32:00,81.0,72.0,30.12,ENE,76,8.0,14.0,74,0.00,,,0.00,,2013-04-17 21:32:00,
2013-04-17 11:42:00,81.0,72.0,30.12,SE,127,9.0,15.0,74,0.00,,,0.00,,2013-04-17 21:42:00,
2013-04-17 11:53:00,81.0,72.0,30.12,SE,127,9.0,15.0,74,0.00,,,0.00,,2013-04-17 21:53:00,
2013-04-17 12:02:00,80.0,71.0,30.12,ENE,65,5.0,16.0,73,0.00,,,0.00,,2013-04-17 22:02:00,
2013-04-17 12:12:00,80.0,71.0,30.12,ENE,65,5.0,16.0,73,0.00,,,0.00,,2013-04-17 22:12:00,
2013-04-17 12:22:00,81.0,71.0,30.11,ENE,66,4.0,17.0,72,0.00,,,0.00,,2013-04-17 22:22:00,
2013-04-17 12:32:00,82.0,72.0,30.11,ENE,57,4.0,14.0,72,0.00,,,0.00,,2013-04-17 22:32:00,
2013-04-17 12:42:00,81.0,72.0,30.11,ESE,105,3.0,16.0,74,0.00,,,0.00,,2013-04-17 22:42:00,
2013-04-17 12:53:00,81.0,72.0,30.11,ESE,105,3.0,16.0,74,0.00,,,0.00,,2013-04-17 22:53:00,
2013-04-17 13:02:00,80.0,71.0,30.10,ENE,71,13.0,18.0,74,0.00,,,0.00,,2013-04-17 23:02:00,
2013-04-17 13:12:00,79.0,71.0,30.10,ENE,66,11.0,17.0,76,0.00,,,0.00,,2013-04-17 23:12:00,
2013-04-17 13:22:00,79.0,71.0,30.10,ENE,66,11.0,17.0,76,0.00,,,0.00,,2013-04-17 23:22:00,
2013-04-17 13:32:00,79.0,71.0,30.09,East,96,6.0,16.0,77,0.00,,,0.00,,2013-04-17 23:32:00,
2013-04-17 13:42:00,78.0,70.0,30.09,ESE,105,8.0,18.0,77,0.00,,,0.00,,2013-04-17 23:42:00,
2013-04-17 13:52:00,78.0,70.0,30.09,ESE,105,8.0,18.0,77,0.00,,,0.00,,2013-04-17 23:52:00,
2013-04-17 14:01:00,80.0,71.0,30.08,East,100,8.0,17.0,74,0.00,,,0.00,,2013-04-18 00:01:00,
2013-04-17 14:12:00,80.0,71.0,30.08,East,100,7.0,19.0,73,0.00,,,0.00,,2013-04-18 00:12:00,
2013-04-17 14:21:00,80.0,71.0,30.08,East,100,7.0,19.0,73,0.00,,,0.00,,2013-04-18 00:21:00,
2013-04-17 14:32:00,81.0,71.0,30.08,ESE,105,4.0,15.0,72,0.00,,,0.00,,2013-04-18 00:32:00,
2013-04-17 14:42:00,80.0,70.0,30.07,East,85,14.0,18.0,72,0.00,,,0.00,,2013-04-18 00:42:00,
2013-04-17 14:52:00,80.0,70.0,30.07,East,85,14.0,18.0,72,0.00,,,0.00,,2013-04-18 00:52:00,
2013-04-17 15:01:00,82.0,72.0,30.07,ESE,106,5.0,14.0,72,0.00,,,0.00,,2013-04-18 01:01:00,
2013-04-17 15:11:00,82.0,72.0,30.07,ENE,67,8.0,17.0,71,0.00,,,0.00,,2013-04-18 01:11:00,
2013-04-17 15:22:00,82.0,72.0,30.07,ENE,67,8.0,17.0,71,0.00,,,0.00,,2013-04-18 01:22:00,
2013-04-17 15:32:00,81.0,72.0,30.07,ENE,64,4.0,16.0,73,0.00,,,0.00,,2013-04-18 01:32:00,
2013-04-17 15:41:00,82.0,72.0,30.06,ENE,58,13.0,15.0,71,0.00,,,0.00,,2013-04-18 01:41:00,
2013-04-17 15:52:00,82.0,72.0,30.06,ENE,58,13.0,15.0,71,0.00,,,0.00,,2013-04-18 01:52:00,
2013-04-17 16:01:00,81.0,71.0,30.07,East,89,6.0,17.0,72,0.00,,,0.00,,2013-04-18 02:01:00,
2013-04-17 16:11:00,81.0,71.0,30.07,East,90,7.0,16.0,72,0.00,,,0.00,,2013-04-18 02:11:00,
2013-04-17 16:22:00,81.0,71.0,30.07,East,90,7.0,16.0,72,0.00,,,0.00,,2013-04-18 02:22:00,
2013-04-17 16:31:00,79.0,70.0,30.07,ENE,60,14.0,15.0,74,0.00,,,0.00,,2013-04-18 02:31:00,
2013-04-17 16:41:00,79.0,70.0,30.07,ENE,60,14.0,15.0,74,0.00,,,0.00,,2013-04-18 02:41:00,
2013-04-17 16:52:00,79.0,70.0,30.07,ENE,60,14.0,15.0,74,0.00,,,0.00,,2013-04-18 02:52:00,
2013-04-17 17:01:00,77.0,70.0,30.07,East,101,2.0,13.0,78,0.00,,,0.00,,2013-04-18 03:01:00,
2013-04-17 17:11:00,77.0,69.0,30.07,NE,50,4.0,11.0,77,0.00,,,0.00,,2013-04-18 03:11:00,
2013-04-17 17:21:00,77.0,69.0,30.07,NE,50,4.0,11.0,77,0.00,,,0.00,,2013-04-18 03:21:00,
2013-04-17 17:33:00,77.0,70.0,30.08,ENE,71,14.0,16.0,78,0.00,,,0.00,,2013-04-18 03:33:00,
2013-04-17 17:42:00,76.0,69.0,30.08,ESE,107,4.0,20.0,79,0.00,,,0.00,,2013-04-18 03:42:00,
2013-04-17 17:53:00,76.0,69.0,30.08,ESE,107,4.0,20.0,79,0.00,,,0.00,,2013-04-18 03:53:00,
2013-04-17 18:03:00,76.0,69.0,30.09,NE,49,5.0,18.0,79,0.00,,,0.00,,2013-04-18 04:03:00,
2013-04-17 18:12:00,76.0,69.0,30.09,NE,49,5.0,18.0,79,0.00,,,0.00,,2013-04-18 04:12:00,
2013-04-17 18:23:00,76.0,69.0,30.09,ENE,65,9.0,13.0,79,0.00,,,0.00,,2013-04-18 04:23:00,
2013-04-17 18:32:00,75.0,68.0,30.10,NNE,26,5.0,14.0,79,0.00,,,0.00,,2013-04-18 04:32:00,
2013-04-17 18:42:00,75.0,68.0,30.10,ENE,59,5.0,15.0,79,0.00,,,0.00,,2013-04-18 04:42:00,
2013-04-17 18:53:00,75.0,68.0,30.10,ENE,59,5.0,15.0,79,0.00,,,0.00,,2013-04-18 04:53:00,
2013-04-17 19:02:00,74.0,67.0,30.10,ENE,76,4.0,10.0,79,0.00,,,0.00,,2013-04-18 05:02:00,
2013-04-17 19:12:00,74.0,67.0,30.10,East,84,8.0,11.0,79,0.00,,,0.00,,2013-04-18 05:12:00,
2013-04-17 19:21:00,74.0,67.0,30.10,East,84,8.0,11.0,79,0.00,,,0.00,,2013-04-18 05:21:00,
2013-04-17 19:32:00,74.0,67.0,30.10,ENE,64,15.0,20.0,80,0.00,,,0.00,,2013-04-18 05:32:00,
2013-04-17 19:42:00,73.0,66.0,30.10,ENE,59,11.0,16.0,80,0.00,,,0.00,,2013-04-18 05:42:00,
2013-04-17 19:52:00,73.0,66.0,30.10,ENE,59,11.0,16.0,80,0.00,,,0.00,,2013-04-18 05:52:00,
2013-04-17 20:01:00,73.0,66.0,30.11,ESE,113,9.0,16.0,80,0.00,,,0.00,,2013-04-18 06:01:00,
2013-04-17 20:12:00,73.0,66.0,30.11,ENE,67,5.0,15.0,80,0.00,,,0.00,,2013-04-18 06:12:00,
2013-04-17 20:21:00,73.0,66.0,30.11,ENE,67,5.0,15.0,80,0.00,,,0.00,,2013-04-18 06:21:00,
2013-04-17 20:32:00,73.0,66.0,30.12,ENE,59,3.0,16.0,80,0.00,,,0.00,,2013-04-18 06:32:00,
2013-04-17 20:42:00,73.0,67.0,30.13,NE,53,5.0,16.0,81,0.00,,,0.00,,2013-04-18 06:42:00,
2013-04-17 20:52:00,73.0,67.0,30.13,NE,53,5.0,16.0,81,0.00,,,0.00,,2013-04-18 06:52:00,
2013-04-17 21:01:00,73.0,67.0,30.13,East,80,9.0,14.0,81,0.00,,,0.00,,2013-04-18 07:01:00,
2013-04-17 21:11:00,72.0,66.0,30.14,East,89,10.0,14.0,81,0.00,,,0.00,,2013-04-18 07:11:00,
2013-04-17 21:21:00,72.0,66.0,30.14,East,89,10.0,14.0,81,0.00,,,0.00,,2013-04-18 07:21:00,
2013-04-17 21:31:00,72.0,66.0,30.15,ENE,71,8.0,22.0,81,0.00,,,0.00,,2013-04-18 07:31:00,
2013-04-17 21:42:00,73.0,67.0,30.15,East,93,7.0,13.0,81,0.00,,,0.00,,2013-04-18 07:42:00,
2013-04-17 21:52:00,73.0,67.0,30.15,East,93,7.0,13.0,81,0.00,,,0.00,,2013-04-18 07:52:00,
2013-04-17 22:01:00,72.0,66.0,30.16,ENE,78,8.0,11.0,81,0.00,,,0.00,,2013-04-18 08:01:00,
2013-04-17 22:11:00,72.0,66.0,30.16,NE,54,5.0,18.0,82,0.00,,,0.00,,2013-04-18 08:11:00,
2013-04-17 22:22:00,72.0,66.0,30.16,NE,54,5.0,18.0,82,0.00,,,0.00,,2013-04-18 08:22:00,
2013-04-17 22:32:00,72.0,66.0,30.16,NE,47,3.0,15.0,82,0.00,,,0.00,,2013-04-18 08:32:00,
2013-04-17 22:41:00,72.0,66.0,30.16,ENE,72,5.0,18.0,82,0.00,,,0.00,,2013-04-18 08:41:00,
2013-04-17 22:52:00,72.0,66.0,30.16,ENE,72,5.0,18.0,82,0.00,,,0.00,,2013-04-18 08:52:00,
2013-04-17 23:01:00,72.0,66.0,30.15,NE,40,9.0,13.0,82,0.00,,,0.00,,2013-04-18 09:01:00,
2013-04-17 23:11:00,72.0,67.0,30.14,NE,53,3.0,14.0,83,0.00,,,0.00,,2013-04-18 09:11:00,
2013-04-17 23:22:00,72.0,67.0,30.14,NE,53,3.0,14.0,83,0.00,,,0.00,,2013-04-18 09:22:00,
2013-04-17 23:32:00,72.0,67.0,30.14,ENE,74,11.0,14.0,83,0.00,,,0.00,,2013-04-18 09:32:00,
2013-04-17 23:42:00,72.0,67.0,30.14,ENE,69,8.0,15.0,83,0.00,,,0.00,,2013-04-18 09:42:00,
2013-04-17 23:53:00,72.0,67.0,30.14,ENE,69,8.0,15.0,83,0.00,,,0.00,,2013-04-18 09:53:00,